Regional Weather Roundup
Issued by NWS

Home | Current Version | Previous Version | Graphics & Text | Print | Product List | Glossary Off
Versions: 1 2 3 4 5 6 7 8 9 10 11 12 13 14 15 16 17 18 19 20 21 22 23 24 25 26 27 28 29 30 31 32 33 34 35 36 37 38 39 40 41 42 43 44 45 46 47 48 49 50

000
ASUS43 KDMX 192307
RWRIA

WEATHER ROUNDUP FOR IOWA
NATIONAL WEATHER SERVICE DES MOINES IA
600 PM CDT FRI SEP 19 2014

NOTE: "FAIR" INDICATES FEW OR NO CLOUDS BELOW 12,000 FEET WITH NO
SIGNIFICANT WEATHER AND/OR OBSTRUCTIONS TO VISIBILITY.

* - THESE STATIONS ARE NOT NWS STATIONS...THUS NOT UNDER NWS
QUALITY CONTROL.  THEY ALSO DO NOT REPORT WEATHER SUCH
AS PRECIPITATION OR FOG.

IAZ001>003-012>014-020>022-031>034-043>046-200000-
   NORTHWEST IOWA

CITY           SKY/WX    TMP DP  RH WIND       PRES   REMARKS
CARROLL *      SUNNY     79  68  69 S16G24    29.79S HX  81
CHEROKEE *     SUNNY     82  70  65 S17G24    29.75R HX  86
DENISON *      SUNNY     79  70  73 S18G28    29.76S HX  81
LE MARS *      SUNNY     86  68  54 S12G20    29.73S HX  89
ORANGE CITY *  SUNNY     88  64  45 SW12      29.74R HX  89
SHELDON *      SUNNY     84  66  54 SW17      29.72S HX  86
SIOUX CITY     SUNNY     88  66  48 S12       29.73F HX  90
SPENCER        SUNNY     84  68  58 S16G25    29.74R HX  87
STORM LAKE *   SUNNY     81  72  74 SW14G21   29.78S HX  84
$$

IAZ055>058-069>071-079>083-090>094-200000-
   SOUTHWEST IOWA

CITY           SKY/WX    TMP DP  RH WIND       PRES   REMARKS
ATLANTIC *     SUNNY     77  68  73 S16G25    29.82F
AUDUBON *      SUNNY     77  66  69 S15G22    29.83F
CLARINDA *     MOSUNNY   77  68  73 S8G14     29.88F
COUNCIL BLFS * SUNNY     81  72  74 S17G25    29.79S HX  84
CRESTON *      MOSUNNY   72  66  83 S16G24    29.89F
HARLAN  *      SUNNY     79  70  73 S17G28    29.84S HX  81
LAMONI         MOSUNNY   75  66  73 S15G21    29.92S
RED OAK *      SUNNY     79  70  73 S15G23    29.84F HX  81
SHENANDOAH *   SUNNY     81  70  69 S18G24    29.85F HX  84
$$

IAZ047>049-059>061-072>074-084-200000-
   CENTRAL IOWA

CITY           SKY/WX    TMP DP  RH WIND       PRES   REMARKS
AMES           SUNNY     77  66  68 S18G29    29.82F
ANKENY *       SUNNY     77  66  69 S14G26    29.83F
CHARITON *     SUNNY     75  64  69 S14       29.91R
DES MOINES     PTSUNNY   78  66  66 S20G25    29.85F HX  80
GRINNELL*      SUNNY     73  61  64 S15G24    29.89S
KNOXVILLE *    SUNNY     75  63  64 S16       29.88S
MARSHALLTOWN   MOSUNNY   75  62  64 S23       29.84F
PELLA *        SUNNY     75  63  64 S14G20    29.90S
PERRY *          N/A     77  66  69 S18G26    29.83R
$$

IAZ004>006-015-016-023>025-035-036-200000-
   NORTH CENTRAL IOWA

CITY           SKY/WX    TMP DP  RH WIND       PRES   REMARKS
ALGONA *       SUNNY     81  66  61 SW20G31   29.75R HX  83
CLARION *        N/A     79  66  65 S17G32    29.78R HX  81
ESTHERVILLE    SUNNY     82  66  58 SW17G28   29.73R HX  84
FORT DODGE *   SUNNY     81  66  61 S16G25    29.79R HX  83
MASON CITY     SUNNY     77  65  66 S24G38    29.76S
FOREST CITY *  SUNNY     79  66  65 S15G28    29.75R HX  81
IOWA FALLS *     N/A     77  63  61 S21G26    29.82S
$$

IAZ007>011-017>019-026>030-037>042-050>054-066-200000-
   NORTHEAST IOWA

CITY           SKY/WX    TMP DP  RH WIND       PRES   REMARKS
CEDAR RAPIDS   MOSUNNY   73  60  63 S16G25    29.90F
CHARLES CITY * SUNNY     75  61  60 S21G30    29.79F
CLINTON *      MOSUNNY   72  54  53 S10       29.98F
DECORAH *      SUNNY     72  59  64 S17G33    29.79F
DUBUQUE        MOSUNNY   71  54  54 S16G26    29.91F
MONTICELLO *   SUNNY     73  57  56 S10G18    29.90F
OELWEIN *      SUNNY     73  59  60 S24G33    29.86F
WATERLOO       SUNNY     75  59  57 S20G33    29.83F
$$

IAZ064-065-067-068-078-200000-
   EAST CENTRAL IOWA

CITY           SKY/WX    TMP DP  RH WIND       PRES   REMARKS
DAVENPORT      MOSUNNY   73  52  47 S12       29.96F
IOWA CITY      SUNNY     74  59  59 S9        29.93F
MT. PLEASANT * MOSUNNY   75  54  46 S10G16    29.96F
MUSCATINE *    SUNNY     77  55  47 S14       29.95S
QUAD CITIES    MOSUNNY   74  54  49 S8        29.96S
$$

IAZ062-063-075>077-085>089-095>099-200000-
   SOUTHEAST IOWA

CITY           SKY/WX    TMP DP  RH WIND       PRES   REMARKS
BURLINGTON     SUNNY     74  56  53 S12       29.97S
FAIRFIELD *    SUNNY     75  59  57 S14G20    29.94F
FORT MADISON * SUNNY     75  55  50 S7        29.98S
KEOKUK *       SUNNY     75  59  57 S8        29.97S
OSKALOOSA *      N/A     73  61  64 S15G22    29.92S
CENTERVILLE *  SUNNY     73  64  73 S8        29.95S
OTTUMWA        SUNNY     75  60  59 S12       29.92F
WASHINGTON *   SUNNY     75  59  57 S13       29.94S
$$

ABBREVIATIONS USED IN REMARKS
   TC - TEMPERATURES IN CELSIUS
  WCI - WIND CHILL INDEX
   HX - HEAT INDEX
  VSB - VISIBILITY
$$




USA.gov is the U.S. government's official web portal to all federal, state and local government web resources and services.